[[{"header":{"parameterUnit":"m.s-1","parameterCategory":1,"la1":30.2991,"la2":30.254,"lo1":-89.0895,"lo2":-89.0444,"dy":0.0017,"dx":0.0017,"nx":28,"ny":28,"refTime":"2023-09-25T21:00:00:Z","depth":0,"parameterNumber":2,"parameterNumberName":"U-component_of_WINDS"},"data":[0,0,0,0,0,0,0,0,0,0,0,0,0,0,0,0,0,0,0,0,0,0,0,0,0,0,0,0,0,0,0,0,0,0,0,0,0,0,0,0,0,0,0,0,0,0,0,0,0,0,0,0,0,0,0,0,0,0,-0.5216,-0.5217,0,-0.5277,-0.5278,-0.5279,-0.5279,-0.5278,-0.5277,-0.5276,-0.534,-0.5342,-0.5345,0,0,0,0,0,0,0,0,0,0,0,0,0,-0.51,-0.5102,-0.5216,-0.5217,-0.5217,-0.5277,-0.5278,-0.5279,-0.5279,-0.5278,-0.5277,-0.5276,-0.5339,-0.5342,-0.5345,0,0,0,0,0,0,0,0,0,0,0,0,0,-0.5155,-0.5103,-0.5216,-0.5225,-0.5226,-0.5277,-0.5278,-0.5279,-0.5279,-0.5278,-0.5277,-0.5275,-0.5338,-0.5342,-0.5345,-0.5392,0,0,-0.5357,-0.5358,0,0,0,0,0,0,0,0,-0.5152,-0.5159,-0.5222,-0.5224,-0.5226,-0.5269,-0.526,-0.5317,-0.5279,-0.5259,-0.5276,-0.5275,-0.5317,-0.5323,-0.5337,-0.5395,-0.5398,-0.5357,-0.5359,-0.5361,-0.5362,0,0,0,0,0,0,0,-0.5148,-0.5156,-0.524,-0.5223,-0.5225,-0.5226,-0.5232,-0.5271,-0.5294,-0.5261,-0.5261,-0.5268,-0.5318,-0.5333,-0.5338,-0.5399,-0.5357,-0.536,-0.5362,-0.5364,-0.5499,-0.55,0,0,0,0,0,0,-0.5142,-0.5153,-0.5238,-0.5242,-0.5185,-0.5229,-0.5236,-0.5256,-0.5294,-0.5298,-0.5269,-0.5268,-0.5328,-0.5334,-0.5341,-0.5398,-0.5361,-0.5364,-0.5366,-0.5497,-0.5499,-0.5501,0,0,0,0,0,0,-0.514,-0.515,-0.5236,-0.5198,-0.5209,-0.5232,-0.5255,-0.5258,-0.5273,-0.53,-0.5304,-0.528,-0.5327,-0.5335,-0.5379,-0.54,-0.5366,-0.5369,-0.5496,-0.5498,-0.55,-0.5513,0,0,0,0,0,0,-0.5136,-0.5149,-0.5166,-0.5198,-0.5211,-0.5273,-0.5256,-0.526,-0.528,-0.5279,-0.5312,-0.5316,-0.5327,-0.5374,-0.5383,-0.5405,-0.5372,-0.5494,-0.5497,-0.5499,-0.5511,-0.5515,-0.5519,0,0,0,0,0,-0.5132,-0.5167,-0.5167,-0.5177,-0.5233,-0.5274,-0.5281,-0.5293,-0.5281,-0.5299,-0.5317,-0.5315,-0.5396,-0.5378,-0.5389,-0.5412,-0.5493,-0.5496,-0.5499,-0.5509,-0.5514,-0.5519,0,0,0,0,0,0,-0.5137,-0.5172,-0.5172,-0.5218,-0.5243,-0.5274,-0.5297,-0.5298,-0.5327,-0.5325,-0.5338,-0.5345,-0.5389,-0.5405,-0.5384,-0.5459,-0.5443,-0.5449,-0.5447,-0.5453,-0.5457,-0.5452,-0.5375,0,0,0,0,0,-0.5144,-0.5174,-0.5203,-0.5241,-0.5254,-0.5273,-0.5292,-0.5298,-0.5325,-0.5335,-0.5356,-0.5382,-0.5413,-0.5434,-0.5464,-0.5513,-0.5521,-0.5534,-0.5538,-0.5542,-0.5546,-0.5574,-0.558,-0.5511,-0.5511,-0.5511,0,0,-0.5158,-0.518,-0.5199,-0.5243,-0.5263,-0.5294,-0.5282,-0.5316,-0.5339,-0.5341,-0.5383,-0.5399,-0.5429,-0.5476,-0.5498,-0.549,-0.5567,-0.5546,-0.5548,-0.5551,-0.5578,-0.5584,-0.559,-0.5513,-0.5513,-0.5512,0,0,-0.52,-0.5219,-0.5254,-0.5274,-0.5305,-0.5318,-0.5326,-0.5357,-0.5368,-0.5411,-0.5413,-0.5441,-0.5495,-0.5517,-0.5535,-0.5586,-0.5586,-0.5595,-0.5617,-0.5644,-0.5649,-0.5654,-0.5673,-0.5679,-0.56,-0.56,-0.56,0,-0.5213,-0.526,-0.5271,-0.5306,-0.5325,-0.5328,-0.5363,-0.5383,-0.5422,-0.5436,-0.5427,-0.5495,-0.5516,-0.5568,-0.558,-0.5595,-0.5605,-0.5592,-0.5648,-0.5653,-0.5657,-0.5675,-0.5682,-0.5601,-0.5601,-0.5601,-0.56,0,-0.5275,-0.5308,-0.5333,-0.537,-0.5393,-0.5427,-0.5444,-0.5466,-0.5471,-0.5485,-0.5529,-0.5554,-0.559,-0.5603,-0.5608,-0.5656,-0.5651,-0.5645,-0.5629,-0.5665,-0.5682,-0.5689,-0.5602,-0.5602,-0.5602,-0.5601,0,0,-0.5321,-0.5366,-0.5374,-0.5392,-0.5427,-0.5452,-0.5487,-0.5522,-0.5541,-0.5568,-0.5598,-0.5644,-0.5639,-0.566,-0.5667,-0.5691,-0.573,-0.5682,-0.5683,-0.5691,-0.5786,-0.579,-0.5798,-0.5731,-0.5732,-0.5733,-0.5783,0,-0.5367,-0.5429,-0.544,-0.5495,-0.5525,-0.5529,-0.556,-0.5584,-0.5599,-0.5627,-0.5643,-0.5676,-0.5667,-0.5679,-0.5703,-0.5721,-0.575,-0.5717,-0.5759,-0.5761,-0.5752,-0.5807,-0.5811,-0.5858,-0.579,-0.5791,-0.5792,0,-0.5428,-0.5457,-0.5514,-0.5545,-0.5558,-0.5586,-0.5619,-0.5646,-0.5675,-0.5684,-0.5707,-0.5713,-0.575,-0.5733,-0.5785,-0.5762,-0.578,-0.5792,-0.5794,-0.5798,-0.5779,-0.5813,-0.5873,-0.588,-0.5803,-0.5802,-0.5801,0,-0.5456,-0.5509,-0.5551,-0.5565,-0.5603,-0.5622,-0.5639,-0.5666,-0.5687,-0.5716,-0.573,-0.5763,-0.5782,-0.5808,-0.5822,-0.5808,-0.5874,-0.5857,-0.5882,-0.5882,-0.5896,-0.5895,-0.596,-0.5907,-0.5907,-0.5907,-0.5907,0,-0.5505,-0.554,-0.5564,-0.5589,-0.5629,-0.5642,-0.5681,-0.5698,-0.5722,-0.5751,-0.5757,-0.5784,-0.5801,-0.5831,-0.5843,-0.5885,-0.5893,-0.5902,-0.5904,-0.5901,-0.59,-0.5913,-0.5911,-0.5909,-0.5908,-0.5908,-0.5908,0,-0.5543,-0.556,-0.5606,-0.5638,-0.5647,-0.5674,-0.5702,-0.5727,-0.5742,-0.5779,-0.5788,-0.5811,-0.5847,-0.5864,-0.5909,-0.5917,-0.5964,-0.5964,-0.5954,-0.5955,-0.598,-0.5977,-0.6055,-0.6066,-0.6006,-0.6007,-0.6007,0,-0.5574,-0.5601,-0.5636,-0.5656,-0.5673,-0.5705,-0.5726,-0.5741,-0.5762,-0.5798,-0.5819,-0.5855,-0.5884,-0.5941,-0.5963,-0.5997,-0.5998,-0.6023,-0.6004,-0.6,-0.5999,-0.5998,-0.6001,-0.6027,-0.6027,-0.6028,-0.6028,0,-0.5626,-0.5634,-0.5664,-0.5697,-0.5722,-0.575,-0.5776,-0.5792,-0.5811,-0.5836,-0.5873,-0.5896,-0.5941,-0.5977,-0.6013,-0.6031,-0.6033,-0.6034,-0.6042,-0.6039,-0.6032,-0.6037,-0.5964,-0.6033,-0.6032,-0.6032,-0.6032,-0.6031,-0.5662,-0.5686,-0.5715,-0.5749,-0.577,-0.5795,-0.5821,-0.5839,-0.587,-0.5908,-0.5915,-0.5954,-0.5983,-0.6031,-0.605,-0.6081,-0.6076,-0.6087,-0.609,-0.6092,-0.6094,-0.6027,-0.6088,-0.6088,-0.6088,-0.6088,-0.6088,0,-0.5715,-0.5733,-0.5764,-0.5802,-0.5829,-0.5828,-0.5858,-0.5881,-0.5915,-0.5942,-0.5971,-0.6014,-0.6049,-0.6073,-0.6109,-0.6129,-0.6131,-0.6138,-0.6137,-0.6141,-0.6097,-0.6086,-0.6136,-0.6136,-0.6136,-0.6136,-0.6136,-0.6136,-0.5745,-0.5787,-0.5798,-0.5851,-0.5869,-0.5908,-0.5925,-0.5948,-0.597,-0.6017,-0.6046,-0.6062,-0.6088,-0.6126,-0.6158,-0.6165,-0.6178,-0.6185,-0.6191,-0.6149,-0.6144,-0.6139,-0.613,-0.6188,-0.6188,-0.6233,-0.6234,-0.6234]},{"header":{"parameterUnit":"m.s-1","parameterCategory":1,"la1":30.2991,"la2":30.254,"lo1":-89.0895,"lo2":-89.0444,"dy":0.0017,"dx":0.0017,"nx":28,"ny":28,"refTime":"2023-09-25T21:00:00:Z","depth":0,"parameterNumber":3,"parameterNumberName":"V-component_of_WINDS"},"data":[0,0,0,0,0,0,0,0,0,0,0,0,0,0,0,0,0,0,0,0,0,0,0,0,0,0,0,0,0,0,0,0,0,0,0,0,0,0,0,0,0,0,0,0,0,0,0,0,0,0,0,0,0,0,0,0,0,0,1.2015,1.2014,0,1.1924,1.1923,1.1922,1.1901,1.1901,1.1902,1.1903,1.1805,1.1802,1.1799,0,0,0,0,0,0,0,0,0,0,0,0,0,1.2166,1.2163,1.2015,1.2014,1.2013,1.1924,1.1923,1.1922,1.1901,1.1901,1.1902,1.1903,1.1806,1.1802,1.1799,0,0,0,0,0,0,0,0,0,0,0,0,0,1.209,1.2162,1.2015,1.1992,1.1989,1.1925,1.1923,1.1922,1.19,1.1901,1.1902,1.1903,1.1807,1.1803,1.1798,1.175,0,0,1.1783,1.1781,0,0,0,0,0,0,0,0,1.2094,1.2085,1.1996,1.1993,1.199,1.1925,1.1941,1.1864,1.19,1.1934,1.1903,1.1904,1.1844,1.1836,1.1817,1.1745,1.1741,1.1783,1.178,1.1778,1.1777,0,0,0,0,0,0,0,1.21,1.2088,1.1979,1.1995,1.1991,1.1984,1.1975,1.1926,1.1884,1.1931,1.1929,1.1919,1.1842,1.1822,1.1814,1.174,1.1783,1.1779,1.1776,1.1774,1.1623,1.1622,0,0,0,0,0,0,1.211,1.2093,1.1982,1.1976,1.2046,1.1981,1.197,1.1945,1.1885,1.1877,1.1918,1.1918,1.1829,1.182,1.1811,1.175,1.1778,1.1774,1.1771,1.1624,1.1623,1.1621,0,0,0,0,0,0,1.2113,1.21,1.1986,1.2034,1.2019,1.1977,1.1949,1.1942,1.1922,1.1876,1.1868,1.1905,1.183,1.1818,1.1765,1.1746,1.1772,1.1767,1.1625,1.1624,1.1622,1.1628,0,0,0,0,0,0,1.2117,1.2101,1.2084,1.2034,1.2017,1.1943,1.1948,1.194,1.1914,1.1913,1.1861,1.1853,1.1829,1.1773,1.1761,1.174,1.1763,1.1627,1.1625,1.1623,1.1629,1.1626,1.1624,0,0,0,0,0,1.2123,1.2088,1.2083,1.2069,1.1994,1.1942,1.1932,1.1906,1.1913,1.1894,1.1864,1.1855,1.1751,1.1767,1.1754,1.1731,1.1628,1.1625,1.1623,1.163,1.1627,1.1624,0,0,0,0,0,0,1.2135,1.2081,1.2075,1.2023,1.1987,1.1938,1.1913,1.1904,1.1864,1.1865,1.1834,1.1822,1.1772,1.1746,1.1766,1.1681,1.1689,1.1684,1.1699,1.1696,1.1694,1.17,1.1759,0,0,0,0,0,1.2132,1.2095,1.205,1.2008,1.1991,1.1955,1.1932,1.1916,1.1877,1.1861,1.1827,1.1789,1.1747,1.172,1.168,1.1626,1.1613,1.1604,1.1601,1.1599,1.1594,1.1563,1.1558,1.1613,1.1613,1.1613,0,0,1.2124,1.209,1.2069,1.201,1.198,1.1942,1.1943,1.1902,1.1873,1.1854,1.1803,1.1777,1.1732,1.1678,1.1653,1.1656,1.1577,1.1596,1.1595,1.1591,1.156,1.1555,1.155,1.1611,1.1611,1.1612,0,0,1.209,1.2062,1.2024,1.1995,1.1951,1.1927,1.1918,1.1871,1.1853,1.1802,1.1787,1.1751,1.1681,1.1649,1.1624,1.1579,1.1568,1.1566,1.1553,1.1523,1.1518,1.1514,1.1497,1.1492,1.1562,1.1562,1.1562,0,1.2086,1.2029,1.2005,1.1965,1.1939,1.1923,1.1883,1.1856,1.18,1.1782,1.1786,1.1697,1.1665,1.1604,1.1593,1.1574,1.1561,1.1571,1.1521,1.1517,1.1513,1.1496,1.149,1.1562,1.1562,1.1562,1.1562,0,1.2025,1.1986,1.1961,1.1909,1.188,1.184,1.1809,1.1783,1.1769,1.1745,1.1692,1.1654,1.1605,1.159,1.1576,1.1526,1.1529,1.1528,1.1535,1.1508,1.1492,1.1485,1.1562,1.1562,1.1562,1.1562,0,0,1.1995,1.1932,1.1923,1.1899,1.1849,1.1817,1.1777,1.1731,1.1708,1.167,1.1634,1.1576,1.1574,1.1545,1.1528,1.1501,1.1467,1.1503,1.1502,1.1497,1.1408,1.1409,1.1402,1.1461,1.1459,1.1458,1.1412,0,1.1955,1.1883,1.1861,1.18,1.1763,1.1747,1.1712,1.1677,1.1653,1.1617,1.1591,1.1549,1.1551,1.1533,1.1507,1.1477,1.1449,1.148,1.1425,1.1424,1.1436,1.1393,1.1394,1.1352,1.1405,1.1404,1.1404,0,1.1897,1.186,1.1797,1.1752,1.1735,1.1704,1.1659,1.1626,1.1585,1.157,1.1539,1.1523,1.1479,1.149,1.1428,1.1449,1.1426,1.1408,1.1405,1.1398,1.1411,1.1384,1.1338,1.1331,1.1394,1.1394,1.1395,0,1.188,1.1814,1.1768,1.1748,1.1695,1.1673,1.1649,1.161,1.1584,1.1545,1.1527,1.1483,1.1458,1.1424,1.1396,1.1407,1.1336,1.1345,1.132,1.1321,1.1305,1.1306,1.1253,1.1292,1.1292,1.1292,1.1292,0,1.1836,1.1798,1.1759,1.173,1.1686,1.1661,1.1617,1.1593,1.1558,1.1523,1.1506,1.1474,1.144,1.1402,1.1381,1.1332,1.1321,1.1306,1.13,1.1307,1.1308,1.129,1.1291,1.129,1.1291,1.1291,1.1291,0,1.1809,1.1782,1.173,1.1685,1.1672,1.1642,1.1602,1.1572,1.1549,1.1505,1.1493,1.1455,1.141,1.138,1.1322,1.1307,1.1254,1.1249,1.1267,1.1264,1.1241,1.1243,1.1173,1.1162,1.121,1.121,1.1209,0,1.1782,1.1753,1.1704,1.1681,1.1657,1.1619,1.1592,1.1566,1.1538,1.1491,1.1467,1.1421,1.1383,1.1311,1.1278,1.1233,1.1226,1.1205,1.1219,1.1226,1.1224,1.1226,1.1222,1.1202,1.1202,1.1201,1.1201,0,1.1737,1.1726,1.1689,1.1647,1.1616,1.1581,1.1546,1.1527,1.1495,1.1464,1.1419,1.139,1.1331,1.1285,1.1238,1.1212,1.12,1.1197,1.1189,1.1194,1.1206,1.1198,1.126,1.1198,1.1199,1.1199,1.1199,1.1199,1.1708,1.1681,1.1643,1.1602,1.1573,1.1541,1.1511,1.1485,1.1447,1.1398,1.1385,1.1337,1.1297,1.1232,1.1206,1.1167,1.1169,1.1157,1.1154,1.1151,1.115,1.1213,1.1158,1.1158,1.1158,1.1158,1.1158,0,1.1661,1.1636,1.1599,1.1552,1.1519,1.1514,1.1475,1.1448,1.1406,1.1371,1.1334,1.1281,1.1237,1.1201,1.1155,1.113,1.1124,1.1119,1.112,1.1114,1.1152,1.1163,1.1125,1.1125,1.1125,1.1125,1.1125,1.1125,1.1633,1.1586,1.157,1.1508,1.1483,1.1437,1.1415,1.1385,1.1357,1.1299,1.1263,1.124,1.1203,1.1155,1.1113,1.1104,1.1087,1.1083,1.1072,1.1107,1.1111,1.1115,1.1125,1.108,1.108,1.1037,1.1036,1.1036]}]]